Time,TemperatureF,DewpointF,PressureIn,WindDirection,WindDirectionDegrees,WindSpeedMPH,WindSpeedGustMPH,Humidity,HourlyPrecipIn,Conditions,Clouds,dailyrainin,SoftwareType,DateUTC
2013-02-03 00:04:00,45.9,35.9,30.42,West,270,3.1,5.4,68,0.00,,,0.00,pywws,2013-02-03 05:04:00,
2013-02-03 00:09:00,45.9,35.9,30.42,NW,315,1.6,3.8,68,0.00,,,0.00,pywws,2013-02-03 05:09:00,
2013-02-03 00:14:00,45.7,35.7,30.42,WNW,292,2.2,3.8,68,0.00,,,0.00,pywws,2013-02-03 05:14:00,
2013-02-03 00:19:00,45.7,36.1,30.43,NW,315,2.2,4.5,69,0.00,,,0.00,pywws,2013-02-03 05:19:00,
2013-02-03 00:24:00,45.5,35.9,30.43,North,0,0.0,2.2,69,0.00,,,0.00,pywws,2013-02-03 05:24:00,
2013-02-03 00:34:00,45.5,35.9,30.43,West,270,1.6,3.1,69,0.00,,,0.00,pywws,2013-02-03 05:34:00,
2013-02-03 00:39:00,45.5,35.9,30.44,West,270,0.0,0.0,69,0.00,,,0.00,pywws,2013-02-03 05:39:00,
2013-02-03 00:44:00,45.3,35.4,30.44,NW,315,0.0,1.6,68,0.00,,,0.00,pywws,2013-02-03 05:44:00,
2013-02-03 00:49:00,45.1,35.6,30.44,NW,315,0.0,1.6,69,0.00,,,0.00,pywws,2013-02-03 05:49:00,
2013-02-03 00:54:00,45.0,35.4,30.44,NW,315,0.0,0.7,69,0.00,,,0.00,pywws,2013-02-03 05:54:00,
2013-02-03 01:04:00,45.0,35.4,30.45,SW,225,0.7,1.6,69,0.00,,,0.00,pywws,2013-02-03 06:04:00,
2013-02-03 01:09:00,45.0,35.8,30.45,South,180,0.0,0.7,70,0.00,,,0.00,pywws,2013-02-03 06:09:00,
2013-02-03 01:14:00,44.8,35.6,30.45,West,270,0.7,1.6,70,0.00,,,0.00,pywws,2013-02-03 06:14:00,
2013-02-03 01:19:00,44.8,35.6,30.45,South,180,0.7,1.6,70,0.00,,,0.00,pywws,2013-02-03 06:19:00,
2013-02-03 01:24:00,44.8,35.6,30.45,West,270,0.0,0.0,70,0.00,,,0.00,pywws,2013-02-03 06:24:00,
2013-02-03 01:34:00,44.8,36.0,30.46,SW,225,0.0,0.0,71,0.00,,,0.00,pywws,2013-02-03 06:34:00,
2013-02-03 01:39:00,44.2,35.4,30.46,West,270,0.0,1.6,71,0.00,,,0.00,pywws,2013-02-03 06:39:00,
2013-02-03 01:44:00,44.1,35.3,30.46,SW,225,1.6,2.2,71,0.00,,,0.00,pywws,2013-02-03 06:44:00,
2013-02-03 01:49:00,43.9,35.4,30.47,West,270,0.7,1.6,72,0.00,,,0.00,pywws,2013-02-03 06:49:00,
2013-02-03 01:54:00,43.9,35.8,30.47,West,270,0.0,0.7,73,0.00,,,0.00,pywws,2013-02-03 06:54:00,
2013-02-03 02:04:00,43.9,35.8,30.47,SW,225,0.7,1.6,73,0.00,,,0.00,pywws,2013-02-03 07:04:00,
2013-02-03 02:08:00,44.1,36.0,30.47,West,270,0.7,2.2,73,0.00,,,0.00,pywws,2013-02-03 07:08:00,
2013-02-03 02:13:00,44.1,36.0,30.47,WNW,292,0.7,2.2,73,0.00,,,0.00,pywws,2013-02-03 07:13:00,
2013-02-03 02:18:00,44.1,36.0,30.48,West,270,0.7,2.2,73,0.00,,,0.00,pywws,2013-02-03 07:18:00,
2013-02-03 02:23:00,44.1,36.3,30.48,West,270,1.6,2.2,74,0.00,,,0.00,pywws,2013-02-03 07:23:00,
2013-02-03 02:34:00,44.1,36.3,30.48,West,270,2.2,3.1,74,0.00,,,0.00,pywws,2013-02-03 07:34:00,
2013-02-03 02:39:00,44.2,36.8,30.48,West,270,3.8,5.4,75,0.00,,,0.00,pywws,2013-02-03 07:39:00,
2013-02-03 02:44:00,44.4,37.3,30.49,West,270,3.1,4.5,76,0.00,,,0.00,pywws,2013-02-03 07:44:00,
2013-02-03 02:49:00,44.6,37.5,30.49,SW,225,3.1,3.8,76,0.00,,,0.00,pywws,2013-02-03 07:49:00,
2013-02-03 02:54:00,44.6,37.5,30.49,West,270,3.1,6.0,76,0.00,,,0.00,pywws,2013-02-03 07:54:00,
2013-02-03 03:04:00,44.8,37.7,30.49,West,270,2.2,4.5,76,0.00,,,0.00,pywws,2013-02-03 08:04:00,
2013-02-03 03:09:00,44.8,38.0,30.49,West,270,3.8,6.9,77,0.00,,,0.00,pywws,2013-02-03 08:09:00,
2013-02-03 03:14:00,44.8,38.0,30.49,West,270,4.5,8.3,77,0.00,,,0.00,pywws,2013-02-03 08:14:00,
2013-02-03 03:19:00,44.8,38.0,30.50,SW,225,6.0,13.0,77,0.00,,,0.00,pywws,2013-02-03 08:19:00,
2013-02-03 03:24:00,44.4,38.3,30.50,NW,315,5.4,12.1,79,0.00,,,0.00,pywws,2013-02-03 08:24:00,
2013-02-03 03:34:00,44.1,38.0,30.50,WNW,292,4.5,6.9,79,0.00,,,0.00,pywws,2013-02-03 08:34:00,
2013-02-03 03:39:00,43.7,37.9,30.50,West,270,3.8,5.4,80,0.00,,,0.00,pywws,2013-02-03 08:39:00,
2013-02-03 03:44:00,43.5,37.8,30.50,SW,225,4.5,8.3,80,0.00,,,0.00,pywws,2013-02-03 08:44:00,
2013-02-03 03:49:00,43.3,37.6,30.50,West,270,2.2,4.5,80,0.00,,,0.00,pywws,2013-02-03 08:49:00,
2013-02-03 03:54:00,43.2,37.7,30.50,West,270,3.8,6.0,81,0.00,,,0.00,pywws,2013-02-03 08:54:00,
2013-02-03 04:04:00,43.0,37.6,30.50,WNW,292,2.2,4.5,81,0.00,,,0.00,pywws,2013-02-03 09:04:00,
2013-02-03 04:09:00,42.6,37.2,30.49,NW,315,3.1,4.5,81,0.00,,,0.00,pywws,2013-02-03 09:09:00,
2013-02-03 04:14:00,42.4,37.0,30.48,NW,315,2.2,4.5,81,0.00,,,0.00,pywws,2013-02-03 09:14:00,
2013-02-03 04:19:00,42.3,36.9,30.47,NW,315,2.2,4.5,81,0.00,,,0.00,pywws,2013-02-03 09:19:00,
2013-02-03 04:24:00,42.1,36.7,30.46,NW,315,3.1,6.0,81,0.00,,,0.00,pywws,2013-02-03 09:24:00,
2013-02-03 04:34:00,41.9,36.8,30.45,West,270,2.2,3.8,82,0.00,,,0.00,pywws,2013-02-03 09:34:00,
2013-02-03 04:39:00,41.5,36.5,30.44,West,270,2.2,4.5,82,0.00,,,0.00,pywws,2013-02-03 09:39:00,
2013-02-03 04:44:00,41.4,36.6,30.43,SW,225,1.6,3.1,83,0.00,,,0.00,pywws,2013-02-03 09:44:00,
2013-02-03 04:49:00,41.2,36.4,30.42,SW,225,2.2,3.8,83,0.00,,,0.00,pywws,2013-02-03 09:49:00,
2013-02-03 04:54:00,41.0,36.2,30.42,West,270,1.6,3.1,83,0.00,,,0.00,pywws,2013-02-03 09:54:00,
2013-02-03 05:04:00,41.0,36.2,30.42,West,270,3.1,7.6,83,0.00,,,0.00,pywws,2013-02-03 10:04:00,
2013-02-03 05:09:00,40.6,35.9,30.42,SW,225,3.8,7.6,83,0.00,,,0.00,pywws,2013-02-03 10:09:00,
2013-02-03 05:14:00,40.5,35.7,30.43,West,270,3.8,6.0,83,0.00,,,0.00,pywws,2013-02-03 10:14:00,
2013-02-03 05:19:00,40.5,36.0,30.43,West,270,3.1,6.0,84,0.00,,,0.00,pywws,2013-02-03 10:19:00,
2013-02-03 05:24:00,40.3,35.8,30.43,WSW,248,3.1,3.8,84,0.00,,,0.00,pywws,2013-02-03 10:24:00,
2013-02-03 05:34:00,40.1,35.7,30.44,West,270,3.8,6.9,84,0.00,,,0.00,pywws,2013-02-03 10:34:00,
2013-02-03 05:39:00,39.9,35.5,30.44,WNW,292,3.1,4.5,84,0.00,,,0.00,pywws,2013-02-03 10:39:00,
2013-02-03 05:44:00,39.7,35.0,30.44,West,270,1.6,3.1,83,0.00,,,0.00,pywws,2013-02-03 10:44:00,
2013-02-03 05:49:00,39.7,35.0,30.44,West,270,3.1,7.6,83,0.00,,,0.00,pywws,2013-02-03 10:49:00,
2013-02-03 05:54:00,39.7,35.0,30.44,NW,315,3.8,5.4,83,0.00,,,0.00,pywws,2013-02-03 10:54:00,
2013-02-03 06:04:00,39.7,35.0,30.43,WNW,292,3.1,7.6,83,0.00,,,0.00,pywws,2013-02-03 11:04:00,
2013-02-03 06:09:00,39.7,35.0,30.42,SW,225,2.2,4.5,83,0.00,,,0.00,pywws,2013-02-03 11:09:00,
2013-02-03 06:14:00,39.6,34.5,30.42,NW,315,2.2,6.0,82,0.00,,,0.00,pywws,2013-02-03 11:14:00,
2013-02-03 06:19:00,39.6,34.5,30.41,West,270,2.2,4.5,82,0.00,,,0.00,pywws,2013-02-03 11:19:00,
2013-02-03 06:24:00,39.6,34.5,30.40,NW,315,3.1,7.6,82,0.00,,,0.00,pywws,2013-02-03 11:24:00,
2013-02-03 06:34:00,39.4,34.4,30.40,WSW,248,3.1,4.5,82,0.00,,,0.00,pywws,2013-02-03 11:34:00,
2013-02-03 06:38:00,39.4,34.0,30.40,SW,225,1.6,4.5,81,0.00,,,0.00,pywws,2013-02-03 11:38:00,
2013-02-03 06:43:00,39.2,33.9,30.41,West,270,4.5,7.6,81,0.00,,,0.00,pywws,2013-02-03 11:43:00,
2013-02-03 06:48:00,39.2,33.9,30.42,West,270,2.2,4.5,81,0.00,,,0.00,pywws,2013-02-03 11:48:00,
2013-02-03 06:53:00,39.2,33.6,30.42,NW,315,0.7,3.8,80,0.00,,,0.00,pywws,2013-02-03 11:53:00,
2013-02-03 07:04:00,39.0,33.4,30.42,West,270,2.2,5.4,80,0.00,,,0.00,pywws,2013-02-03 12:04:00,
2013-02-03 07:09:00,39.0,33.4,30.43,West,270,3.1,3.8,80,0.00,,,0.00,pywws,2013-02-03 12:09:00,
2013-02-03 07:14:00,39.0,33.4,30.43,NW,315,2.2,3.8,80,0.00,,,0.00,pywws,2013-02-03 12:14:00,
2013-02-03 07:19:00,39.0,33.4,30.43,NW,315,2.2,4.5,80,0.00,,,0.00,pywws,2013-02-03 12:19:00,
2013-02-03 07:24:00,38.8,33.2,30.42,West,270,1.6,4.5,80,0.00,,,0.00,pywws,2013-02-03 12:24:00,
2013-02-03 07:34:00,38.7,33.0,30.41,NW,315,1.6,3.8,80,0.00,,,0.00,pywws,2013-02-03 12:34:00,
2013-02-03 07:39:00,38.5,32.9,30.39,SW,225,1.6,3.1,80,0.00,,,0.00,pywws,2013-02-03 12:39:00,
2013-02-03 07:44:00,38.5,32.9,30.38,West,270,1.6,3.8,80,0.00,,,0.00,pywws,2013-02-03 12:44:00,
2013-02-03 07:49:00,38.5,32.9,30.37,West,270,2.2,3.8,80,0.00,,,0.00,pywws,2013-02-03 12:49:00,
2013-02-03 07:54:00,38.3,32.7,30.37,NW,315,3.1,3.8,80,0.00,,,0.00,pywws,2013-02-03 12:54:00,
2013-02-03 08:04:00,38.5,32.9,30.36,West,270,1.6,3.8,80,0.00,,,0.00,pywws,2013-02-03 13:04:00,
2013-02-03 08:09:00,38.8,32.9,30.34,SW,225,2.2,4.5,79,0.00,,,0.00,pywws,2013-02-03 13:09:00,
2013-02-03 08:14:00,39.0,32.8,30.34,West,270,3.8,5.4,78,0.00,,,0.00,pywws,2013-02-03 13:14:00,
2013-02-03 08:19:00,39.2,32.9,30.33,West,270,3.1,4.5,78,0.00,,,0.00,pywws,2013-02-03 13:19:00,
2013-02-03 08:24:00,39.4,32.8,30.32,NW,315,3.8,9.2,77,0.00,,,0.00,pywws,2013-02-03 13:24:00,
2013-02-03 08:34:00,39.7,32.8,30.32,NW,315,4.5,6.9,76,0.00,,,0.00,pywws,2013-02-03 13:34:00,
2013-02-03 08:39:00,39.9,32.6,30.31,West,270,2.2,4.5,75,0.00,,,0.00,pywws,2013-02-03 13:39:00,
2013-02-03 08:44:00,40.5,32.8,30.31,SW,225,2.2,3.8,74,0.00,,,0.00,pywws,2013-02-03 13:44:00,
2013-02-03 08:49:00,40.8,32.8,30.31,NW,315,1.6,3.1,73,0.00,,,0.00,pywws,2013-02-03 13:49:00,
2013-02-03 08:54:00,41.2,32.9,30.30,WNW,292,3.8,6.0,72,0.00,,,0.00,pywws,2013-02-03 13:54:00,
2013-02-03 09:04:00,41.5,32.8,30.30,NW,315,3.8,6.9,71,0.00,,,0.00,pywws,2013-02-03 14:04:00,
2013-02-03 09:09:00,42.3,32.1,30.30,North,0,2.2,4.5,67,0.00,,,0.00,pywws,2013-02-03 14:09:00,
2013-02-03 09:14:00,43.0,32.8,30.29,NW,315,5.4,6.9,67,0.00,,,0.00,pywws,2013-02-03 14:14:00,
2013-02-03 09:19:00,44.2,32.5,30.29,WNW,292,4.5,8.3,63,0.00,,,0.00,pywws,2013-02-03 14:19:00,
2013-02-03 09:24:00,44.8,32.2,30.29,WSW,248,5.4,13.0,61,0.00,,,0.00,pywws,2013-02-03 14:24:00,
2013-02-03 09:34:00,44.6,32.0,30.29,West,270,3.8,7.6,61,0.00,,,0.00,pywws,2013-02-03 14:34:00,
2013-02-03 09:39:00,45.9,31.9,30.30,West,270,4.5,7.6,58,0.00,,,0.00,pywws,2013-02-03 14:39:00,
2013-02-03 09:44:00,46.0,32.1,30.31,SW,225,3.8,6.0,58,0.00,,,0.00,pywws,2013-02-03 14:44:00,
2013-02-03 09:49:00,47.7,33.2,30.32,West,270,3.1,4.5,57,0.00,,,0.00,pywws,2013-02-03 14:49:00,
2013-02-03 09:54:00,48.2,32.8,30.32,SW,225,4.5,9.8,55,0.00,,,0.00,pywws,2013-02-03 14:54:00,
2013-02-03 10:04:00,48.6,33.1,30.32,West,270,1.6,3.8,55,0.00,,,0.00,pywws,2013-02-03 15:04:00,
2013-02-03 10:09:00,47.7,32.3,30.33,SW,225,3.1,4.5,55,0.00,,,0.00,pywws,2013-02-03 15:09:00,
2013-02-03 10:14:00,48.2,32.8,30.33,South,180,1.6,3.8,55,0.00,,,0.00,pywws,2013-02-03 15:14:00,
2013-02-03 10:19:00,49.3,32.9,30.34,NNW,338,3.8,6.9,53,0.00,,,0.00,pywws,2013-02-03 15:19:00,
2013-02-03 10:24:00,49.3,32.4,30.34,West,270,6.0,10.7,52,0.00,,,0.00,pywws,2013-02-03 15:24:00,
2013-02-03 10:34:00,49.6,32.3,30.34,NW,315,3.8,6.9,51,0.00,,,0.00,pywws,2013-02-03 15:34:00,
2013-02-03 10:39:00,50.5,32.6,30.32,West,270,5.4,7.6,50,0.00,,,0.00,pywws,2013-02-03 15:39:00,
2013-02-03 10:44:00,50.5,31.6,30.31,West,270,6.9,10.7,48,0.00,,,0.00,pywws,2013-02-03 15:44:00,
2013-02-03 10:49:00,50.2,32.8,30.30,NW,315,3.1,5.4,51,0.00,,,0.00,pywws,2013-02-03 15:49:00,
2013-02-03 10:54:00,50.4,31.9,30.29,SW,225,8.3,13.6,49,0.00,,,0.00,pywws,2013-02-03 15:54:00,
2013-02-03 11:04:00,50.2,32.3,30.27,West,270,3.8,6.0,50,0.00,,,0.00,pywws,2013-02-03 16:04:00,
2013-02-03 11:09:00,52.9,33.2,30.27,SW,225,4.5,7.6,47,0.00,,,0.00,pywws,2013-02-03 16:09:00,
2013-02-03 11:14:00,53.1,32.8,30.27,West,270,3.1,6.0,46,0.00,,,0.00,pywws,2013-02-03 16:14:00,
2013-02-03 11:19:00,53.6,33.3,30.27,NW,315,4.5,7.6,46,0.00,,,0.00,pywws,2013-02-03 16:19:00,
2013-02-03 11:24:00,54.7,32.6,30.27,West,270,4.5,8.3,43,0.00,,,0.00,pywws,2013-02-03 16:24:00,
2013-02-03 11:34:00,54.3,32.9,30.28,South,180,4.5,6.9,44,0.00,,,0.00,pywws,2013-02-03 16:34:00,
2013-02-03 11:39:00,56.5,33.1,30.29,SW,225,3.1,6.0,41,0.00,,,0.00,pywws,2013-02-03 16:39:00,
2013-02-03 11:44:00,56.3,32.9,30.29,NW,315,5.4,8.3,41,0.00,,,0.00,pywws,2013-02-03 16:44:00,
2013-02-03 11:49:00,56.8,32.8,30.30,North,0,5.4,7.6,40,0.00,,,0.00,pywws,2013-02-03 16:49:00,
2013-02-03 11:54:00,55.6,32.3,30.30,WNW,292,7.6,13.0,41,0.00,,,0.00,pywws,2013-02-03 16:54:00,
2013-02-03 12:04:00,55.4,32.1,30.30,SW,225,8.3,12.1,41,0.00,,,0.00,pywws,2013-02-03 17:04:00,
2013-02-03 12:09:00,55.9,32.6,30.31,WNW,292,6.9,16.8,41,0.00,,,0.00,pywws,2013-02-03 17:09:00,
2013-02-03 12:14:00,55.9,32.0,30.31,West,270,10.7,15.2,40,0.00,,,0.00,pywws,2013-02-03 17:14:00,
2013-02-03 12:19:00,55.8,32.4,30.31,NW,315,3.1,5.4,41,0.00,,,0.00,pywws,2013-02-03 17:19:00,
2013-02-03 12:24:00,56.3,32.3,30.32,NW,315,6.0,11.4,40,0.00,,,0.00,pywws,2013-02-03 17:24:00,
2013-02-03 12:34:00,56.5,31.8,30.32,WSW,248,6.9,16.8,39,0.00,,,0.00,pywws,2013-02-03 17:34:00,
2013-02-03 12:39:00,57.2,31.8,30.32,SW,225,5.4,9.8,38,0.00,,,0.00,pywws,2013-02-03 17:39:00,
2013-02-03 12:44:00,57.0,32.3,30.32,SW,225,3.8,5.4,39,0.00,,,0.00,pywws,2013-02-03 17:44:00,
2013-02-03 12:49:00,57.2,31.8,30.32,SW,225,5.4,8.3,38,0.00,,,0.00,pywws,2013-02-03 17:49:00,
2013-02-03 12:54:00,57.2,31.8,30.32,WNW,292,4.5,8.3,38,0.00,,,0.00,pywws,2013-02-03 17:54:00,
2013-02-03 13:04:00,57.4,32.0,30.32,NW,315,6.0,10.7,38,0.00,,,0.00,pywws,2013-02-03 18:04:00,
2013-02-03 13:09:00,58.3,31.4,30.32,WSW,248,13.0,19.7,36,0.00,,,0.00,pywws,2013-02-03 18:09:00,
2013-02-03 13:14:00,57.7,31.0,30.33,NW,315,8.3,10.7,36,0.00,,,0.00,pywws,2013-02-03 18:14:00,
2013-02-03 13:19:00,57.6,31.5,30.33,NW,315,9.8,15.9,37,0.00,,,0.00,pywws,2013-02-03 18:19:00,
2013-02-03 13:24:00,57.6,30.8,30.32,West,270,9.8,13.0,36,0.00,,,0.00,pywws,2013-02-03 18:24:00,
2013-02-03 13:34:00,58.1,31.3,30.31,West,270,5.4,8.3,36,0.00,,,0.00,pywws,2013-02-03 18:34:00,
2013-02-03 13:39:00,58.6,31.1,30.28,WNW,292,9.2,17.5,35,0.00,,,0.00,pywws,2013-02-03 18:39:00,
2013-02-03 13:44:00,58.6,30.4,30.27,South,180,8.3,15.2,34,0.00,,,0.00,pywws,2013-02-03 18:44:00,
2013-02-03 13:49:00,59.0,29.9,30.26,NW,315,10.7,16.8,33,0.00,,,0.00,pywws,2013-02-03 18:49:00,
2013-02-03 13:54:00,58.3,30.0,30.26,West,270,8.3,12.1,34,0.00,,,0.00,pywws,2013-02-03 18:54:00,
2013-02-03 14:04:00,58.1,30.6,30.26,NW,315,6.9,12.1,35,0.00,,,0.00,pywws,2013-02-03 19:04:00,
2013-02-03 14:09:00,58.1,29.9,30.27,WNW,292,9.2,18.3,34,0.00,,,0.00,pywws,2013-02-03 19:09:00,
2013-02-03 14:14:00,58.3,30.8,30.27,North,-999,5.4,8.3,35,0.00,,,0.00,pywws,2013-02-03 19:14:00,
2013-02-03 14:19:00,59.0,30.7,30.27,NW,315,11.4,20.6,34,0.00,,,0.00,pywws,2013-02-03 19:19:00,
2013-02-03 14:24:00,59.0,30.7,30.28,West,270,6.0,9.8,34,0.00,,,0.00,pywws,2013-02-03 19:24:00,
2013-02-03 14:34:00,59.4,31.0,30.28,NW,315,6.9,12.1,34,0.00,,,0.00,pywws,2013-02-03 19:34:00,
2013-02-03 14:39:00,60.1,30.9,30.29,West,270,6.9,9.8,33,0.00,,,0.00,pywws,2013-02-03 19:39:00,
2013-02-03 14:44:00,60.4,31.9,30.29,West,270,4.5,10.7,34,0.00,,,0.00,pywws,2013-02-03 19:44:00,
2013-02-03 14:49:00,60.1,30.9,30.29,NW,315,6.0,9.2,33,0.00,,,0.00,pywws,2013-02-03 19:49:00,
2013-02-03 14:54:00,60.3,31.0,30.29,NW,315,3.8,6.9,33,0.00,,,0.00,pywws,2013-02-03 19:54:00,
2013-02-03 15:04:00,60.6,30.6,30.29,West,270,8.3,16.8,32,0.00,,,0.00,pywws,2013-02-03 20:04:00,
2013-02-03 15:09:00,59.4,29.5,30.29,WNW,292,6.9,13.0,32,0.00,,,0.00,pywws,2013-02-03 20:09:00,
2013-02-03 15:14:00,59.5,29.7,30.29,West,270,6.0,8.3,32,0.00,,,0.00,pywws,2013-02-03 20:14:00,
2013-02-03 15:19:00,59.9,30.0,30.29,WNW,292,6.0,8.3,32,0.00,,,0.00,pywws,2013-02-03 20:19:00,
2013-02-03 15:24:00,60.4,30.4,30.29,NW,315,5.4,12.1,32,0.00,,,0.00,pywws,2013-02-03 20:24:00,
2013-02-03 15:34:00,61.2,30.3,30.29,NW,315,6.0,10.7,31,0.00,,,0.00,pywws,2013-02-03 20:34:00,
2013-02-03 15:39:00,61.3,29.6,30.29,NW,315,4.5,9.2,30,0.00,,,0.00,pywws,2013-02-03 20:39:00,
2013-02-03 15:44:00,60.6,29.8,30.30,West,270,6.9,9.2,31,0.00,,,0.00,pywws,2013-02-03 20:44:00,
2013-02-03 15:49:00,61.0,29.3,30.30,West,270,5.4,9.8,30,0.00,,,0.00,pywws,2013-02-03 20:49:00,
2013-02-03 15:54:00,61.7,30.0,30.30,SW,225,7.6,13.6,30,0.00,,,0.00,pywws,2013-02-03 20:54:00,
2013-02-03 16:04:00,62.6,29.0,30.30,NW,315,9.2,13.6,28,0.00,,,0.00,pywws,2013-02-03 21:04:00,
2013-02-03 16:09:00,61.3,27.1,30.30,West,270,8.3,11.4,27,0.00,,,0.00,pywws,2013-02-03 21:09:00,
2013-02-03 16:14:00,61.3,26.2,30.30,West,270,4.5,7.6,26,0.00,,,0.00,pywws,2013-02-03 21:14:00,
2013-02-03 16:19:00,61.0,25.9,30.30,West,270,3.1,6.0,26,0.00,,,0.00,pywws,2013-02-03 21:19:00,
2013-02-03 16:24:00,60.8,25.7,30.30,NW,315,7.6,13.0,26,0.00,,,0.00,pywws,2013-02-03 21:24:00,
2013-02-03 16:34:00,60.4,25.4,30.30,NW,315,6.9,11.4,26,0.00,,,0.00,pywws,2013-02-03 21:34:00,
2013-02-03 16:39:00,60.4,26.3,30.30,NW,315,3.1,4.5,27,0.00,,,0.00,pywws,2013-02-03 21:39:00,
2013-02-03 16:44:00,60.8,25.7,30.30,NW,315,3.8,7.6,26,0.00,,,0.00,pywws,2013-02-03 21:44:00,
2013-02-03 16:49:00,61.0,26.8,30.30,NW,315,3.8,7.6,27,0.00,,,0.00,pywws,2013-02-03 21:49:00,
2013-02-03 16:54:00,60.8,26.6,30.30,WSW,248,7.6,15.9,27,0.00,,,0.00,pywws,2013-02-03 21:54:00,
2013-02-03 17:04:00,60.8,26.6,30.30,SW,225,4.5,7.6,27,0.00,,,0.00,pywws,2013-02-03 22:04:00,
2013-02-03 17:09:00,59.9,23.0,30.29,West,270,3.1,5.4,24,0.00,,,0.00,pywws,2013-02-03 22:09:00,
2013-02-03 17:14:00,59.5,23.7,30.29,West,270,4.5,6.0,25,0.00,,,0.00,pywws,2013-02-03 22:14:00,
2013-02-03 17:19:00,59.4,23.5,30.29,WNW,292,3.8,5.4,25,0.00,,,0.00,pywws,2013-02-03 22:19:00,
2013-02-03 17:24:00,59.2,22.4,30.29,NW,315,6.0,10.7,24,0.00,,,0.00,pywws,2013-02-03 22:24:00,
2013-02-03 17:34:00,58.5,22.8,30.30,West,270,5.4,8.3,25,0.00,,,0.00,pywws,2013-02-03 22:34:00,
2013-02-03 17:39:00,57.7,23.1,30.30,West,270,3.1,4.5,26,0.00,,,0.00,pywws,2013-02-03 22:39:00,
2013-02-03 17:44:00,57.4,22.8,30.30,SW,225,3.8,6.9,26,0.00,,,0.00,pywws,2013-02-03 22:44:00,
2013-02-03 17:49:00,57.0,23.4,30.30,NW,315,5.4,9.8,27,0.00,,,0.00,pywws,2013-02-03 22:49:00,
2013-02-03 17:54:00,56.8,22.3,30.30,North,0,6.0,10.7,26,0.00,,,0.00,pywws,2013-02-03 22:54:00,
2013-02-03 18:04:00,56.5,22.0,30.30,NW,315,6.9,9.8,26,0.00,,,0.00,pywws,2013-02-03 23:04:00,
2013-02-03 18:09:00,55.9,23.3,30.30,NW,315,3.8,5.4,28,0.00,,,0.00,pywws,2013-02-03 23:09:00,
2013-02-03 18:14:00,55.8,23.2,30.30,West,270,4.5,6.9,28,0.00,,,0.00,pywws,2013-02-03 23:14:00,
2013-02-03 18:19:00,55.6,23.8,30.30,NW,315,2.2,3.8,29,0.00,,,0.00,pywws,2013-02-03 23:19:00,
2013-02-03 18:24:00,55.2,23.5,30.30,NW,315,3.1,4.5,29,0.00,,,0.00,pywws,2013-02-03 23:24:00,
2013-02-03 18:34:00,54.7,23.9,30.31,NW,315,3.1,7.6,30,0.00,,,0.00,pywws,2013-02-03 23:34:00,
2013-02-03 18:39:00,54.3,24.3,30.30,NW,315,3.1,4.5,31,0.00,,,0.00,pywws,2013-02-03 23:39:00,
2013-02-03 18:44:00,54.1,24.2,30.31,West,270,2.2,4.5,31,0.00,,,0.00,pywws,2013-02-03 23:44:00,
2013-02-03 18:49:00,54.1,24.2,30.31,NW,315,2.2,3.8,31,0.00,,,0.00,pywws,2013-02-03 23:49:00,
2013-02-03 18:54:00,53.6,24.5,30.31,West,270,3.1,3.8,32,0.00,,,0.00,pywws,2013-02-03 23:54:00,
2013-02-03 19:04:00,53.2,24.9,30.31,West,270,1.6,4.5,33,0.00,,,0.00,pywws,2013-02-04 00:04:00,
2013-02-03 19:09:00,52.7,25.1,30.31,NW,315,1.6,3.1,34,0.00,,,0.00,pywws,2013-02-04 00:09:00,
2013-02-03 19:14:00,52.5,25.7,30.31,West,270,2.2,3.8,35,0.00,,,0.00,pywws,2013-02-04 00:14:00,
2013-02-03 19:19:00,52.2,25.3,30.31,NW,315,1.6,3.8,35,0.00,,,0.00,pywws,2013-02-04 00:19:00,
2013-02-03 19:24:00,52.0,25.9,30.31,NW,315,1.6,3.1,36,0.00,,,0.00,pywws,2013-02-04 00:24:00,
2013-02-03 19:34:00,51.8,25.7,30.32,NW,315,2.2,3.8,36,0.00,,,0.00,pywws,2013-02-04 00:34:00,
2013-02-03 19:39:00,51.3,25.9,30.32,WNW,292,1.6,3.1,37,0.00,,,0.00,pywws,2013-02-04 00:39:00,
2013-02-03 19:44:00,51.1,26.4,30.32,West,270,1.6,2.2,38,0.00,,,0.00,pywws,2013-02-04 00:44:00,
2013-02-03 19:49:00,50.7,26.0,30.32,NW,315,0.7,2.2,38,0.00,,,0.00,pywws,2013-02-04 00:49:00,
2013-02-03 19:54:00,50.4,26.4,30.32,NW,315,0.0,1.6,39,0.00,,,0.00,pywws,2013-02-04 00:54:00,
2013-02-03 20:04:00,50.2,26.8,30.32,NW,315,1.6,2.2,40,0.00,,,0.00,pywws,2013-02-04 01:04:00,
2013-02-03 20:09:00,49.5,26.8,30.32,NW,315,0.7,1.6,41,0.00,,,0.00,pywws,2013-02-04 01:09:00,
2013-02-03 20:14:00,49.3,27.2,30.32,WNW,292,1.6,2.2,42,0.00,,,0.00,pywws,2013-02-04 01:14:00,
2013-02-03 20:19:00,48.9,26.8,30.32,West,270,1.6,2.2,42,0.00,,,0.00,pywws,2013-02-04 01:19:00,
2013-02-03 20:24:00,48.7,27.3,30.32,NW,315,0.7,2.2,43,0.00,,,0.00,pywws,2013-02-04 01:24:00,
2013-02-03 20:34:00,48.4,26.9,30.33,WNW,292,0.7,2.2,43,0.00,,,0.00,pywws,2013-02-04 01:34:00,
2013-02-03 20:39:00,48.0,27.2,30.33,West,270,0.7,1.6,44,0.00,,,0.00,pywws,2013-02-04 01:39:00,
2013-02-03 20:44:00,47.8,27.5,30.33,NW,315,1.6,3.1,45,0.00,,,0.00,pywws,2013-02-04 01:44:00,
2013-02-03 20:49:00,47.7,27.9,30.33,West,270,0.7,2.2,46,0.00,,,0.00,pywws,2013-02-04 01:49:00,
2013-02-03 20:54:00,47.5,27.7,30.33,West,270,0.7,2.2,46,0.00,,,0.00,pywws,2013-02-04 01:54:00,
2013-02-03 21:04:00,47.5,27.7,30.33,NW,315,0.0,1.6,46,0.00,,,0.00,pywws,2013-02-04 02:04:00,
2013-02-03 21:09:00,47.1,27.9,30.34,NW,315,0.7,2.2,47,0.00,,,0.00,pywws,2013-02-04 02:09:00,
2013-02-03 21:14:00,46.9,27.8,30.34,NW,315,0.0,0.7,47,0.00,,,0.00,pywws,2013-02-04 02:14:00,
2013-02-03 21:19:00,46.8,27.6,30.34,NW,315,0.7,2.2,47,0.00,,,0.00,pywws,2013-02-04 02:19:00,
2013-02-03 21:24:00,46.6,27.4,30.34,NW,315,0.0,0.7,47,0.00,,,0.00,pywws,2013-02-04 02:24:00,
2013-02-03 21:34:00,46.4,27.8,30.34,NW,315,0.0,0.0,48,0.00,,,0.00,pywws,2013-02-04 02:34:00,
2013-02-03 21:39:00,45.5,28.0,30.35,NW,315,0.0,0.0,50,0.00,,,0.00,pywws,2013-02-04 02:39:00,
2013-02-03 21:44:00,45.0,27.9,30.35,NW,315,0.0,0.0,51,0.00,,,0.00,pywws,2013-02-04 02:44:00,
2013-02-03 21:49:00,44.2,28.2,30.36,NW,315,0.0,0.7,53,0.00,,,0.00,pywws,2013-02-04 02:49:00,
2013-02-03 21:54:00,43.9,28.8,30.36,South,180,0.0,1.6,55,0.00,,,0.00,pywws,2013-02-04 02:54:00,
2013-02-03 22:04:00,43.3,28.3,30.36,NW,315,1.6,2.2,55,0.00,,,0.00,pywws,2013-02-04 03:04:00,
2013-02-03 22:09:00,44.1,28.9,30.37,NW,315,0.7,2.2,55,0.00,,,0.00,pywws,2013-02-04 03:09:00,
2013-02-03 22:14:00,43.7,28.2,30.37,NW,315,1.6,3.1,54,0.00,,,0.00,pywws,2013-02-04 03:14:00,
2013-02-03 22:19:00,44.4,28.8,30.38,NW,315,1.6,2.2,54,0.00,,,0.00,pywws,2013-02-04 03:19:00,
2013-02-03 22:24:00,44.4,28.8,30.38,NW,315,0.7,2.2,54,0.00,,,0.00,pywws,2013-02-04 03:24:00,
2013-02-03 22:34:00,44.4,28.8,30.38,NW,315,0.7,3.1,54,0.00,,,0.00,pywws,2013-02-04 03:34:00,
2013-02-03 22:39:00,44.6,29.0,30.39,West,270,0.0,0.7,54,0.00,,,0.00,pywws,2013-02-04 03:39:00,
2013-02-03 22:44:00,44.4,28.8,30.39,West,270,0.7,1.6,54,0.00,,,0.00,pywws,2013-02-04 03:44:00,
2013-02-03 22:49:00,44.4,28.8,30.39,NW,315,0.0,0.7,54,0.00,,,0.00,pywws,2013-02-04 03:49:00,
2013-02-03 22:54:00,44.2,29.1,30.39,West,270,0.7,1.6,55,0.00,,,0.00,pywws,2013-02-04 03:54:00,
2013-02-03 23:04:00,44.2,29.1,30.40,NW,315,1.6,2.2,55,0.00,,,0.00,pywws,2013-02-04 04:04:00,
2013-02-03 23:09:00,44.6,29.4,30.40,NW,315,1.6,3.1,55,0.00,,,0.00,pywws,2013-02-04 04:09:00,
2013-02-03 23:14:00,44.4,29.3,30.40,NNW,338,1.6,2.2,55,0.00,,,0.00,pywws,2013-02-04 04:14:00,
2013-02-03 23:19:00,44.6,29.4,30.40,NW,315,1.6,3.1,55,0.00,,,0.00,pywws,2013-02-04 04:19:00,
2013-02-03 23:24:00,44.6,29.0,30.41,NW,315,0.7,2.2,54,0.00,,,0.00,pywws,2013-02-04 04:24:00,
2013-02-03 23:34:00,44.6,29.0,30.41,West,270,0.0,0.0,54,0.00,,,0.00,pywws,2013-02-04 04:34:00,
2013-02-03 23:39:00,43.9,28.8,30.42,West,270,0.0,1.6,55,0.00,,,0.00,pywws,2013-02-04 04:39:00,
2013-02-03 23:44:00,43.5,28.4,30.42,West,270,0.0,0.0,55,0.00,,,0.00,pywws,2013-02-04 04:44:00,
2013-02-03 23:49:00,43.2,28.5,30.42,West,270,0.0,0.0,56,0.00,,,0.00,pywws,2013-02-04 04:49:00,
2013-02-03 23:54:00,42.6,28.5,30.42,West,270,0.0,0.0,57,0.00,,,0.00,pywws,2013-02-04 04:54:00,